Weather History for Albert Lea, MN

Change the Weather History Date:

Wednesday, February 1, 2012

  Actual Average Record
Temperature  
Mean Temperature 36 °F -  
Max Temperature 41 °F 24 °F 41 °F (2003)
Min Temperature 30 °F 10 °F -9 °F (2013)
Degree Days  
Heating Degree Days 30    
Moisture  
Dew Point 33 °F    
Average Humidity 95    
Maximum Humidity 100    
Minimum Humidity 87    
Precipitation  
Precipitation 0.00 in - - ()
Sea Level Pressure  
Sea Level Pressure 30.06 in    
Wind  
Wind Speed 4 mph (SW)    
Max Wind Speed 7 mph    
Max Gust Speed -    
Visibility 1 miles    
Events Fog    
Averages and records for this station are not official NWS values.
T = Trace of Precipitation, MM = Missing Value Source: NWS Daily Summary

Daily Weather History Graph

Daily Weather History Graph

Search for Another Location

Airport:

Trip Planner

Search our weather history database for the weather conditions in past years. The results will help you decide how hot, cold, wet, or windy it might be!

Date:

Astronomy

Feb. 01, 2012 Rise Set
Actual Time 7:30 AM CST 5:23 PM CST
Civil Twilight 7:00 AM CST 5:54 PM CST
Nautical Twilight 6:25 AM CST 6:28 PM CST
Astronomical Twilight 5:52 AM CST 7:02 PM CST
Moon 11:49 AM CST (2/1) 2:19 AM CST (2/1)
Length of Visible Light 10h 54m
Length of Day
9h 53m
Waxing Gibbous, 65% of the Moon is Illuminated
Feb 1
Waxing Gibbous
Feb 7
Full
Feb 14
Last Quarter
Feb 21
New
Feb 29
First Quarter

Hourly Weather History & Observations

Time (CST) Temp. Windchill Dew Point Humidity Pressure Visibility Wind Dir Wind Speed Gust Speed Precip Events Conditions
12:09 AM 32.0 °F 26.4 °F 32.0 °F 100% 29.99 in 2.0 mi NW 5.8 mph - N/A   Overcast
12:30 AM 32.0 °F 26.4 °F 32.0 °F 100% 30.00 in 2.5 mi NW 5.8 mph - N/A   Overcast
12:49 AM 32.0 °F 25.6 °F 32.0 °F 100% 30.00 in 1.8 mi WNW 6.9 mph - N/A   Overcast
1:10 AM 32.0 °F 26.4 °F 32.0 °F 100% 30.00 in 1.5 mi WNW 5.8 mph - N/A   Overcast
1:29 AM 30.2 °F 25.4 °F 30.2 °F 100% 30.00 in 1.0 mi WNW 4.6 mph - N/A   Overcast
1:50 AM 30.2 °F 23.4 °F 30.2 °F 100% 30.01 in 0.8 mi WNW 6.9 mph - N/A   Overcast
2:09 AM 30.2 °F 26.7 °F 30.2 °F 100% 30.02 in 0.8 mi WNW 3.5 mph - N/A   Overcast
2:30 AM 30.2 °F 25.4 °F 30.2 °F 100% 30.03 in 0.8 mi WNW 4.6 mph - N/A   Overcast
2:50 AM 30.2 °F - 30.2 °F 100% 30.02 in 0.8 mi Calm Calm - N/A   Overcast
3:09 AM 30.2 °F 26.7 °F 30.2 °F 100% 30.02 in 0.8 mi WNW 3.5 mph - N/A   Overcast
3:30 AM 30.2 °F - 30.2 °F 100% 30.02 in 0.5 mi Calm Calm - N/A Fog Light Freezing Fog
3:49 AM 30.2 °F 25.4 °F 30.2 °F 100% 30.03 in 0.5 mi West 4.6 mph - N/A Fog Light Freezing Fog
4:09 AM 30.2 °F 26.7 °F 30.2 °F 100% 30.03 in 0.5 mi NW 3.5 mph - N/A Fog Light Freezing Fog
4:30 AM 30.2 °F 26.7 °F 30.2 °F 100% 30.03 in 0.2 mi West 3.5 mph - N/A Fog Light Freezing Fog
4:49 AM 30.2 °F - 30.2 °F 100% 30.03 in 0.2 mi Calm Calm - N/A Fog Light Freezing Fog
5:10 AM 30.2 °F 26.7 °F 30.2 °F 100% 30.04 in 0.2 mi WNW 3.5 mph - N/A Fog Light Freezing Fog
5:29 AM 30.2 °F - 30.2 °F 100% 30.04 in 0.2 mi Calm Calm - N/A Fog Light Freezing Fog
5:49 AM 30.2 °F 26.7 °F 30.2 °F 100% 30.05 in 0.2 mi WNW 3.5 mph - N/A Fog Light Freezing Fog
6:09 AM 30.2 °F 26.7 °F 30.2 °F 100% 30.06 in 0.2 mi WNW 3.5 mph - N/A Fog Light Freezing Fog
6:29 AM 30.2 °F 25.4 °F 30.2 °F 100% 30.06 in 0.2 mi West 4.6 mph - N/A Fog Light Freezing Fog
6:50 AM 30.2 °F 26.7 °F 30.2 °F 100% 30.07 in 0.2 mi WNW 3.5 mph - N/A Fog Light Freezing Fog
7:10 AM 30.2 °F - 30.2 °F 100% 30.07 in 0.2 mi Calm Calm - N/A Fog Light Freezing Fog
7:29 AM 30.2 °F - 30.2 °F 100% 30.07 in 0.2 mi Calm Calm - N/A Fog Light Freezing Fog
7:50 AM 30.2 °F - 30.2 °F 100% 30.07 in 0.2 mi Calm Calm - N/A Fog Light Freezing Fog
8:10 AM 30.2 °F - 30.2 °F 100% 30.08 in 0.2 mi Calm Calm - N/A Fog Light Freezing Fog
8:29 AM 30.2 °F - 30.2 °F 100% 30.08 in 0.2 mi Calm Calm - N/A Fog Light Freezing Fog
9:10 AM 30.2 °F - 30.2 °F 100% 30.09 in 0.2 mi Calm Calm - N/A Fog Light Freezing Fog
9:29 AM 30.2 °F - 30.2 °F 100% 30.08 in 0.2 mi Calm Calm - N/A Fog Light Freezing Fog
9:50 AM 30.2 °F - 30.2 °F 100% 30.08 in 0.2 mi Calm Calm - N/A Fog Light Freezing Fog
10:10 AM 30.2 °F - 30.2 °F 100% 30.08 in 0.2 mi Calm Calm - N/A Fog Light Freezing Fog
10:29 AM 30.2 °F - 30.2 °F 100% 30.08 in 0.2 mi Calm Calm - N/A Fog Light Freezing Fog
10:50 AM 32.0 °F - 32.0 °F 100% 30.08 in 0.2 mi Calm Calm - N/A Fog Fog
11:10 AM 32.0 °F - 32.0 °F 100% 30.09 in 0.2 mi Calm Calm - N/A Fog Fog
11:30 AM 32.0 °F - 32.0 °F 100% 30.09 in 0.8 mi Calm Calm - N/A   Overcast
11:36 AM 35.6 °F 32.8 °F - N/A% 30.10 in - South 3.5 mph - 0.01 in   Unknown
11:50 AM 35.6 °F 32.8 °F 33.8 °F 93% 30.09 in 1.0 mi SSW 3.5 mph - N/A   Mist
12:09 PM 37.4 °F - 33.8 °F 87% 30.09 in 1.2 mi Calm Calm - N/A   Overcast
12:30 PM 37.4 °F 34.9 °F 33.8 °F 87% 30.09 in 0.8 mi SE 3.5 mph - N/A   Overcast
12:49 PM 37.4 °F 33.8 °F 35.6 °F 93% 30.08 in 1.0 mi SSE 4.6 mph - N/A   Overcast
1:10 PM 39.2 °F 35.9 °F 35.6 °F 87% 30.08 in 2.0 mi SSE 4.6 mph - N/A   Overcast
1:29 PM 39.2 °F 35.9 °F 35.6 °F 87% 30.07 in 1.5 mi SE 4.6 mph - N/A   Overcast
1:50 PM 39.2 °F 35.0 °F 35.6 °F 87% 30.07 in 2.0 mi SSE 5.8 mph - N/A   Overcast
2:09 PM 39.2 °F 35.9 °F 35.6 °F 87% 30.07 in 2.0 mi SSE 4.6 mph - N/A   Overcast
2:30 PM 39.2 °F 34.2 °F 35.6 °F 87% 30.07 in 2.5 mi SSE 6.9 mph - N/A   Overcast
2:49 PM 39.2 °F 34.2 °F 37.4 °F 93% 30.07 in 2.5 mi SSE 6.9 mph - N/A   Mostly Cloudy
3:10 PM 41.0 °F 37.1 °F 37.4 °F 87% 30.07 in 4.0 mi SSE 5.8 mph - N/A   Mostly Cloudy
3:29 PM 41.0 °F 36.4 °F 37.4 °F 87% 30.07 in 3.0 mi SE 6.9 mph - N/A   Scattered Clouds
3:50 PM 41.0 °F 37.1 °F 37.4 °F 87% 30.07 in 4.0 mi SSE 5.8 mph - N/A   Mostly Cloudy
4:09 PM 39.2 °F 35.0 °F 35.6 °F 87% 30.07 in 2.0 mi South 5.8 mph - N/A   Overcast
4:30 PM 39.2 °F - 35.6 °F 87% 30.07 in 1.0 mi Calm Calm - N/A   Overcast
4:49 PM 39.2 °F 35.0 °F 35.6 °F 87% 30.07 in 0.5 mi South 5.8 mph - N/A Fog Fog
5:10 PM 39.2 °F 35.9 °F 35.6 °F 87% 30.08 in 0.2 mi SSW 4.6 mph - N/A Fog Fog
5:29 PM 37.4 °F 32.8 °F 35.6 °F 93% 30.08 in 0.5 mi South 5.8 mph - N/A Fog Fog
5:50 PM 37.4 °F - 35.6 °F 93% 30.08 in 0.2 mi Calm Calm - N/A Fog Fog
6:09 PM 37.4 °F 34.9 °F 35.6 °F 93% 30.08 in 0.2 mi South 3.5 mph - N/A Fog Fog
6:30 PM 37.4 °F 33.8 °F 35.6 °F 93% 30.08 in 0.2 mi SSW 4.6 mph - N/A Fog Fog
6:50 PM 37.4 °F 33.8 °F 35.6 °F 93% 30.08 in 0.2 mi South 4.6 mph - N/A Fog Fog
7:09 PM 37.4 °F 33.8 °F 35.6 °F 93% 30.08 in 0.2 mi SSW 4.6 mph - N/A Fog Fog
7:30 PM 37.4 °F 33.8 °F 33.8 °F 87% 30.08 in 0.2 mi South 4.6 mph - N/A Fog Fog
7:49 PM 37.4 °F - 33.8 °F 87% 30.09 in 0.2 mi Calm Calm - N/A Fog Fog
8:10 PM 37.4 °F - 33.8 °F 87% 30.09 in 0.2 mi Calm Calm - N/A Fog Fog
8:29 PM 37.4 °F 32.8 °F 33.8 °F 87% 30.09 in 0.2 mi South 5.8 mph - N/A Fog Fog
8:50 PM 37.4 °F 32.8 °F 33.8 °F 87% 30.09 in 0.2 mi South 5.8 mph - N/A Fog Fog
9:09 PM 37.4 °F 33.8 °F 33.8 °F 87% 30.10 in 0.2 mi South 4.6 mph - N/A Fog Fog
9:30 PM 37.4 °F 32.8 °F 33.8 °F 87% 30.10 in 0.2 mi South 5.8 mph - N/A Fog Fog
9:49 PM 37.4 °F 32.8 °F 33.8 °F 87% 30.10 in 0.2 mi South 5.8 mph - N/A Fog Fog
10:09 PM 35.6 °F 31.7 °F 33.8 °F 93% 30.10 in 0.2 mi SSW 4.6 mph - N/A Fog Fog
10:29 PM 35.6 °F 31.7 °F 33.8 °F 93% 30.10 in 0.2 mi SSW 4.6 mph - N/A Fog Fog
10:50 PM 35.6 °F 31.7 °F 33.8 °F 93% 30.10 in 0.2 mi SSW 4.6 mph - N/A Fog Fog
11:09 PM 35.6 °F 32.8 °F 33.8 °F 93% 30.11 in 0.2 mi SW 3.5 mph - N/A Fog Fog
11:30 PM 35.6 °F 32.8 °F 32.0 °F 87% 30.11 in 0.5 mi SSW 3.5 mph - N/A Fog Fog
11:49 PM 35.6 °F - 32.0 °F 87% 30.11 in 0.5 mi Calm Calm - N/A Fog Fog